Regional Weather Roundup
Issued by NWS

Home | Current Version | Previous Version | Graphics & Text | Print | Product List | Glossary Off
Versions: 1 2 3 4 5 6 7 8 9 10 11 12 13 14 15 16 17 18 19 20 21 22 23 24 25 26 27

000
ASUS43 KDMX 232307
RWRIA

WEATHER ROUNDUP FOR IOWA
NATIONAL WEATHER SERVICE DES MOINES IA
600 PM CDT WED APR 23 2014

NOTE: "FAIR" INDICATES FEW OR NO CLOUDS BELOW 12,000 FEET WITH NO
SIGNIFICANT WEATHER AND/OR OBSTRUCTIONS TO VISIBILITY.

* - THESE STATIONS ARE NOT NWS STATIONS...THUS NOT UNDER NWS
QUALITY CONTROL.  THEY ALSO DO NOT REPORT WEATHER SUCH
AS PRECIPITATION OR FOG.

IAZ001>003-012>014-020>022-031>034-043>046-240000-
   NORTHWEST IOWA

CITY           SKY/WX    TMP DP  RH WIND       PRES   REMARKS
CARROLL *      MOSUNNY   48  43  81 SE29G36   29.76F
CHEROKEE *     MOSUNNY   54  41  62 SE20G32   29.75F
DENISON *      MOSUNNY   54  43  66 SE21G30   29.70F
LE MARS *      SUNNY     59  43  55 SE21G33   29.68F
ORANGE CITY *  SUNNY     59  39  47 SE17G26   29.70S
SHELDON *      MOSUNNY   54  39  58 SE30G36   29.71F
SIOUX CITY     SUNNY     62  43  49 SE21G28   29.67F
SPENCER        PTSUNNY   50  38  63 SE26G35   29.78R
STORM LAKE *   MOSUNNY   48  41  76 SE24G36   29.76S
$$

IAZ055>058-069>071-079>083-090>094-240000-
   SOUTHWEST IOWA

CITY           SKY/WX    TMP DP  RH WIND       PRES   REMARKS
ATLANTIC *     LGT RAIN  50  45  81 SE24G36   29.72F
AUDUBON *      MOSUNNY   50  43  76 SE20G29   29.75F
CLARINDA *     MOSUNNY   59  45  58 SE17      29.74F
COUNCIL BLFS * CLOUDY    52  48  87 SE23G30   29.67F
CRESTON *      CLOUDY    52  43  71 E14G22    29.80R
HARLAN  *      MOSUNNY   50  46  87 SE16G28   29.74F
LAMONI         CLOUDY    57  39  51 SE13G24   29.79F
RED OAK *      PTSUNNY   55  45  67 E13G20    29.73F
SHENANDOAH *   SUNNY     63  45  51 SE21G29   29.71S
$$

IAZ047>049-059>061-072>074-084-240000-
   CENTRAL IOWA

CITY           SKY/WX    TMP DP  RH WIND       PRES   REMARKS
AMES           CLOUDY    45  32  60 SE14G25   29.86S
ANKENY *       LGT RAIN  46  41  81 SE18G26   29.86S
CHARITON *     MOSUNNY   52  41  66 E17G29    29.85S
DES MOINES     CLOUDY    49  39  68 E15G30    29.86F
GRINNELL*      LGT RAIN  45  41  87 SE17G24   29.93F
KNOXVILLE *    LGT RAIN  50  39  66 E14G28    29.87F
MARSHALLTOWN   CLOUDY    45  40  82 SE18G28   29.91F
NEWTON *       CLOUDY    45  41  87 SE21G30   29.90F
PELLA *        LGT RAIN  48  41  76 E14G22    29.91F
PERRY *        DRIZZLE   46  39  76 SE26G36   29.78F
$$

IAZ004>006-015-016-023>025-035-036-240000-
   NORTH CENTRAL IOWA

CITY           SKY/WX    TMP DP  RH WIND       PRES   REMARKS
ALGONA *       CLOUDY    45  39  81 SE29G37   29.81F
CLARION *      CLOUDY    45  39  81 SE30G39   29.84F
ESTHERVILLE    CLOUDY    45  38  76 SE30G40   29.78F
FORT DODGE *   CLOUDY    46  37  71 SE22G31   29.81F
MASON CITY     CLOUDY    44  38  79 SE21G31   29.91F
FOREST CITY *  CLOUDY    45  36  70 SE24G31   29.87F
IOWA FALLS *   CLOUDY    45  39  81 E23       29.89F
$$

IAZ007>011-017>019-026>030-037>042-050>054-066-240000-
   NORTHEAST IOWA

CITY           SKY/WX    TMP DP  RH WIND       PRES   REMARKS
CEDAR RAPIDS   LGT RAIN  46  40  79 SE10      29.99R
CHARLES CITY * CLOUDY    43  37  81 SE17      29.97S
CLINTON *      CLOUDY    50  37  62 E15       30.04F
DECORAH *      CLOUDY    48  32  53 SE13G21   29.95F
DUBUQUE        CLOUDY    48  33  56 SE12      30.02F
MONTICELLO *   LGT RAIN  46  37  71 E12       29.97F
OELWEIN *      MIX PCPN N/A N/A N/A SE17      29.97S
WATERLOO       LGT RAIN  45  39  79 SE16G25   29.95F
$$

IAZ064-065-067-068-078-240000-
   EAST CENTRAL IOWA

CITY           SKY/WX    TMP DP  RH WIND       PRES   REMARKS
DAVENPORT      LGT RAIN  50  38  63 E8        30.04F
IOWA CITY      CLOUDY    47  43  86 SE10      30.01S
MT. PLEASANT * CLOUDY    50  41  71 E16       29.96F
MUSCATINE *    CLOUDY    48  45  87 SE7       30.03S
QUAD CITIES    LGT RAIN  50  39  66 E10       30.01F
$$

IAZ062-063-075>077-085>089-095>099-240000-
   SOUTHEAST IOWA

CITY           SKY/WX    TMP DP  RH WIND       PRES   REMARKS
BURLINGTON     CLOUDY    53  39  59 E3        30.02R
FAIRFIELD *    MOSUNNY   50  41  71 SE14G22   29.94F
FORT MADISON * MOSUNNY   54  37  54 E13       30.01S
KEOKUK *       PTSUNNY   59  34  38 E18       29.97F
OSKALOOSA *    CLOUDY    50  43  76 E16       29.93F
CENTERVILLE *  SUNNY     54  37  54 E16       29.89F
OTTUMWA        LGT RAIN  50  39  66 SE20      29.91S
WASHINGTON *   CLOUDY    48  41  76 E22G29    29.95F
$$

ABBREVIATIONS USED IN REMARKS
   TC - TEMPERATURES IN CELSIUS
  WCI - WIND CHILL INDEX
   HX - HEAT INDEX
  VSB - VISIBILITY
$$




USA.gov is the U.S. government's official web portal to all federal, state and local government web resources and services.